Tracking 30995 objects as of 5-Jul-2025
HD Live streaming from Space Station
objects crossing your sky now

STARLINK-3652

Track STARLINK-3652 now!
10-day predictions
STARLINK-3652 is classified as:


NORAD ID: 51991
Int'l Code: 2022-025AM
Perigee: 545.8 km
Apogee: 547.9 km
Inclination: 53.2 °
Period: 95.4 minutes
Semi major axis: 6917 km
RCS: Unknown
Launch date: March 9, 2022
Source: United States (US)
Launch site: AIR FORCE EASTERN TEST RANGE (AFETR)
Your satellite tracking list
ATLAS 5 CENTAUR DEB
Track 1 satellite(s)




NASA's NSSDC Master Catalog

Two Line Element Set (TLE):
1 51991U 22025AM  25185.96577778 -.00000731  00000-0 -27825-4 0  9994
2 51991  53.2186  71.1948 0001531  94.6005 265.5162 15.08840445184757
Source of the keplerian elements: AFSPC